| time (UTC) | temp F | wind direction | speed MPH | gust MPH | rain 1hr in | rain 24hr in | rain mn in | humidity % | barometer mb |
| 20260504020034 | 66 | 21 | 0.0 | 0.0 | 0.00 | 0.00 | 0.00 | 67 | 1004.3 |
| 20260504014534 | 67 | 21 | 0.0 | 0.0 | 0.00 | 0.00 | 0.00 | 65 | 1004.3 |
| 20260504013025 | 69 | 23 | 0.0 | 0.0 | 0.00 | 0.00 | 0.00 | 62 | 1004.2 |
| 20260504011524 | 71 | 23 | 0.0 | 0.0 | 0.00 | 0.00 | 0.00 | 60 | 1004.2 |
| 20260504010022 | 73 | 25 | 0.0 | 0.0 | 0.00 | 0.00 | 0.00 | 57 | 1004.2 |
| 20260504004521 | 75 | 359 | 0.0 | 0.0 | 0.00 | 0.00 | 0.00 | 52 | 1004.3 |
| 20260504003019 | 78 | 359 | 0.0 | 0.0 | 0.00 | 0.00 | 0.00 | 45 | 1004.5 |
| 20260504001519 | 80 | 305 | 0.0 | 0.0 | 0.00 | 0.00 | 0.00 | 40 | 1004.5 |
| 20260504000018 | 80 | 359 | 0.0 | 2.0 | 0.00 | 0.00 | 0.00 | 38 | 1004.6 |
| 20260503234520 | 80 | 305 | 1.0 | 3.0 | 0.00 | 0.00 | 0.00 | 37 | 1004.8 |
| 20260503233015 | 80 | 305 | 1.0 | 5.0 | 0.00 | 0.00 | 0.00 | 36 | 1004.9 |
| 20260503231520 | 81 | 289 | 2.0 | 5.0 | 0.00 | 0.00 | 0.00 | 35 | 1005.0 |
| 20260503230015 | 80 | 288 | 1.0 | 6.0 | 0.00 | 0.00 | 0.00 | 36 | 1005.2 |
| 20260503224511 | 81 | 276 | 2.0 | 7.0 | 0.00 | 0.00 | 0.00 | 35 | 1005.4 |
| 20260503223010 | 81 | 269 | 1.0 | 7.0 | 0.00 | 0.00 | 0.00 | 34 | 1005.4 |
| 20260503221509 | 81 | 211 | 4.0 | 8.0 | 0.00 | 0.00 | 0.00 | 36 | 1005.5 |
| 20260503220007 | 81 | 348 | 2.0 | 6.0 | 0.00 | 0.00 | 0.00 | 35 | 1005.7 |
| 20260503214520 | 81 | 282 | 2.0 | 7.0 | 0.00 | 0.00 | 0.00 | 35 | 1005.8 |
| 20260503213005 | 81 | 305 | 3.0 | 8.0 | 0.00 | 0.00 | 0.00 | 36 | 1006.1 |
| 20260503211502 | 81 | 275 | 2.0 | 8.0 | 0.00 | 0.00 | 0.00 | 36 | 1006.3 |
| 20260503210100 | 81 | 300 | 2.0 | 7.0 | 0.00 | 0.00 | 0.00 | 36 | 1006.3 |
| 20260503204559 | 81 | 234 | 3.0 | 12.0 | 0.00 | 0.00 | 0.00 | 36 | 1006.5 |
| 20260503203056 | 81 | 274 | 2.0 | 8.0 | 0.00 | 0.00 | 0.00 | 36 | 1006.7 |
| 20260503201553 | 80 | 299 | 2.0 | 7.0 | 0.00 | 0.00 | 0.00 | 37 | 1006.9 |
| 20260503200100 | 80 | 262 | 2.0 | 9.0 | 0.00 | 0.00 | 0.00 | 38 | 1007.1 |
| 20260503194558 | 80 | 258 | 3.0 | 11.0 | 0.00 | 0.00 | 0.00 | 38 | 1007.2 |
| 20260503193057 | 80 | 316 | 2.0 | 12.0 | 0.00 | 0.00 | 0.00 | 39 | 1007.4 |
| 20260503191549 | 80 | 265 | 3.0 | 10.0 | 0.00 | 0.00 | 0.00 | 39 | 1007.6 |
| 20260503190048 | 79 | 179 | 3.0 | 9.0 | 0.00 | 0.00 | 0.00 | 40 | 1007.7 |
| 20260503184551 | 78 | 303 | 4.0 | 12.0 | 0.00 | 0.00 | 0.00 | 41 | 1007.9 |
| 20260503183041 | 78 | 287 | 3.0 | 9.0 | 0.00 | 0.00 | 0.00 | 44 | 1008.2 |
| 20260503181542 | 76 | 137 | 5.0 | 15.0 | 0.00 | 0.00 | 0.00 | 44 | 1008.5 |
| 20260503180046 | 74 | 206 | 4.0 | 16.0 | 0.00 | 0.00 | 0.00 | 47 | 1008.8 |
| 20260503174539 | 74 | 192 | 5.0 | 13.0 | 0.00 | 0.00 | 0.00 | 47 | 1009.1 |
| 20260503173035 | 74 | 208 | 5.0 | 12.0 | 0.00 | 0.00 | 0.00 | 46 | 1009.3 |
| 20260503171522 | 73 | 181 | 7.0 | 15.0 | 0.00 | 0.00 | 0.00 | 46 | 1009.3 |
| 20260503150108 | 64 | 173 | 2.0 | 9.0 | 0.00 | 0.00 | 0.00 | 58 | 1010.2 |
| 20260503081503 | 51 | 64 | 1.0 | 6.0 | 0.00 | 0.00 | 0.00 | 58 | 1012.9 |
| 20260503080107 | 51 | 29 | 3.0 | 8.0 | 0.00 | 0.00 | 0.00 | 58 | 1012.9 |
| 20260503071600 | 52 | 208 | 3.0 | 7.0 | 0.00 | 0.00 | 0.00 | 57 | 1013.3 |
| 20260503054539 | 54 | 25 | 3.0 | 6.0 | 0.00 | 0.00 | 0.00 | 51 | 1014.0 |
| 20260503053038 | 54 | 16 | 0.0 | 4.0 | 0.00 | 0.00 | 0.00 | 51 | 1014.2 |
| 20260503051538 | 54 | 18 | 0.0 | 3.0 | 0.00 | 0.00 | 0.00 | 52 | 1014.3 |
| 20260503050034 | 54 | 18 | 0.0 | 4.0 | 0.00 | 0.00 | 0.00 | 53 | 1014.4 |
| 20260503044533 | 53 | 13 | 2.0 | 5.0 | 0.00 | 0.00 | 0.00 | 54 | 1014.8 |
| 20260503043029 | 50 | 62 | 0.0 | 0.0 | 0.00 | 0.00 | 0.00 | 59 | 1014.9 |
| 20260503041528 | 50 | 65 | 0.0 | 0.0 | 0.00 | 0.00 | 0.00 | 61 | 1015.1 |
| 20260503040026 | 50 | 68 | 0.0 | 2.0 | 0.00 | 0.00 | 0.00 | 62 | 1015.2 |
| 20260503034526 | 50 | 66 | 0.0 | 0.0 | 0.00 | 0.00 | 0.00 | 62 | 1015.4 |
| 20260503033034 | 50 | 65 | 0.0 | 1.0 | 0.00 | 0.00 | 0.00 | 62 | 1015.5 |
| 20260503031523 | 50 | 68 | 0.0 | 0.0 | 0.00 | 0.00 | 0.00 | 63 | 1015.6 |
| 20260503030043 | 51 | 63 | 0.0 | 0.0 | 0.00 | 0.00 | 0.00 | 63 | 1015.6 |
| 20260503024530 | 51 | 60 | 0.0 | 0.0 | 0.00 | 0.00 | 0.00 | 62 | 1015.5 |
| 20260503023022 | 51 | 63 | 0.0 | 0.0 | 0.00 | 0.00 | 0.00 | 62 | 1015.5 |
| 20260503021526 | 52 | 16 | 0.0 | 0.0 | 0.00 | 0.00 | 0.00 | 61 | 1015.6 |